Location: Rancho Del Sol Observatory
(38.7214°N, 120.6350°W)
Time: 02:06:20
(UTC-07:00)

Cosmos 2221 Rocket - Visible Passes

Search period start: 20 April 2014 00:00
Search period end: 30 April 2014 00:00
Orbit: 622 x 650 km, 82.5° (Epoch: 18 April)

Date Brightness Start Highest point End Pass type
(mag) Time Alt. Az. Time Alt. Az. Time Alt. Az.
20 Apr 5.5 05:25:55 10° N 05:30:04 35° ENE 05:34:12 10° SE visible
22 Apr 6.8 04:34:33 10° NE 04:37:02 14° ENE 04:39:30 10° ESE visible
23 Apr 5.8 04:56:02 10° NNE 05:00:00 29° ENE 05:03:58 10° SE visible
24 Apr 4.2 05:18:20 10° N 05:22:50 64° E 05:27:20 10° SSE visible
25 Apr 6.8 04:05:07 10° NE 04:06:55 12° ENE 04:08:43 10° E visible
25 Apr 3.7 05:41:04 10° NNW 05:45:31 58° W 05:49:58 10° S visible
26 Apr 6.0 04:26:11 10° NNE 04:29:56 25° ENE 04:33:40 10° SE visible
27 Apr 4.5 04:48:20 10° N 04:52:47 53° E 04:57:14 10° SSE visible
28 Apr 7.0 03:36:38 10° ENE 03:36:47 10° ENE 03:36:56 10° ENE visible
28 Apr 3.6 05:10:58 10° NNW 05:15:30 70° W 05:20:01 10° S visible
29 Apr 6.1 03:56:22 10° NNE 03:59:50 21° ENE 04:03:18 10° ESE visible
29 Apr 4.4 05:34:03 10° NNW 05:38:05 32° W 05:42:06 10° SSW visible
